| time (UTC) | temp C | wind direction | speed KPH | gust KPH | rain 1hr cm | rain 24hr cm | rain mn cm | humidity % | barometer mb |
| 20260506003734 | 17 | 246 | 14.5 | 20.9 | 0.00 | 0.00 | 0.00 | 74 | 1010.0 |
| 20260506003231 | 17 | 244 | 8.0 | 11.3 | 0.00 | 0.00 | 0.00 | 73 | 1009.9 |
| 20260506002727 | 18 | 128 | 12.9 | 14.5 | 0.00 | 0.00 | 0.00 | 72 | 1009.6 |
| 20260506002223 | 18 | 247 | 9.7 | 14.5 | 0.00 | 0.00 | 0.00 | 72 | 1009.6 |
| 20260506001719 | 18 | 187 | 8.0 | 11.3 | 0.00 | 0.00 | 0.00 | 71 | 1009.6 |
| 20260506001217 | 18 | 221 | 9.7 | 12.9 | 0.00 | 0.00 | 0.00 | 71 | 1009.6 |
| 20260506000714 | 18 | 296 | 6.4 | 12.9 | 0.00 | 0.00 | 0.00 | 71 | 1009.6 |
| 20260506000212 | 18 | 255 | 19.3 | 22.5 | 0.00 | 0.00 | 0.00 | 71 | 1009.3 |
| 20260505235709 | 18 | 174 | 6.4 | 8.0 | 0.00 | 0.00 | 0.00 | 71 | 1009.4 |
| 20260505235206 | 18 | 178 | 9.7 | 16.1 | 0.00 | 0.00 | 0.00 | 70 | 1009.3 |
| 20260505234703 | 18 | 122 | 6.4 | 9.7 | 0.00 | 0.00 | 0.00 | 70 | 1009.2 |
| 20260505234200 | 18 | 106 | 4.8 | 8.0 | 0.00 | 0.00 | 0.00 | 70 | 1009.1 |
| 20260505233656 | 18 | 224 | 14.5 | 14.5 | 0.00 | 0.00 | 0.00 | 69 | 1008.9 |
| 20260505233155 | 18 | 241 | 6.4 | 9.7 | 0.00 | 0.00 | 0.00 | 70 | 1009.2 |
| 20260505232652 | 18 | 233 | 4.8 | 4.8 | 0.00 | 0.00 | 0.00 | 70 | 1008.7 |
| 20260505232149 | 18 | 199 | 8.0 | 9.7 | 0.00 | 0.00 | 0.00 | 70 | 1008.4 |
| 20260505231646 | 18 | 289 | 8.0 | 11.3 | 0.00 | 0.00 | 0.00 | 71 | 1008.8 |
| 20260505231145 | 17 | 212 | 11.3 | 14.5 | 0.00 | 0.00 | 0.00 | 71 | 1008.8 |
| 20260505230642 | 17 | 251 | 8.0 | 11.3 | 0.00 | 0.00 | 0.00 | 71 | 1008.6 |
| 20260505230139 | 18 | 293 | 6.4 | 11.3 | 0.00 | 0.00 | 0.00 | 71 | 1008.5 |
| 20260505225635 | 18 | 263 | 16.1 | 22.5 | 0.00 | 0.00 | 0.00 | 70 | 1008.6 |
| 20260505225131 | 18 | 234 | 9.7 | 12.9 | 0.00 | 0.00 | 0.00 | 70 | 1008.6 |
| 20260505224628 | 18 | 220 | 8.0 | 9.7 | 0.00 | 0.00 | 0.00 | 69 | 1008.7 |
| 20260505224126 | 18 | 198 | 8.0 | 12.9 | 0.00 | 0.00 | 0.00 | 69 | 1008.6 |
| 20260505223623 | 18 | 174 | 11.3 | 17.7 | 0.00 | 0.00 | 0.00 | 68 | 1008.6 |
| 20260505223119 | 18 | 246 | 16.1 | 24.1 | 0.00 | 0.00 | 0.00 | 68 | 1008.5 |
| 20260505222615 | 19 | 329 | 8.0 | 12.9 | 0.00 | 0.00 | 0.00 | 67 | 1008.5 |
| 20260505222111 | 19 | 219 | 17.7 | 24.1 | 0.00 | 0.00 | 0.00 | 66 | 1008.2 |
| 20260505221608 | 19 | 149 | 6.4 | 9.7 | 0.00 | 0.00 | 0.00 | 66 | 1008.4 |
| 20260505221105 | 20 | 188 | 9.7 | 12.9 | 0.00 | 0.00 | 0.00 | 66 | 1008.0 |
| 20260505220602 | 20 | 171 | 9.7 | 12.9 | 0.00 | 0.00 | 0.00 | 66 | 1008.2 |
| 20260505220100 | 20 | 73 | 4.8 | 8.0 | 0.00 | 0.00 | 0.00 | 65 | 1008.2 |
| 20260505215558 | 20 | 196 | 12.9 | 20.9 | 0.00 | 0.00 | 0.00 | 65 | 1008.4 |
| 20260505215055 | 20 | 44 | 8.0 | 12.9 | 0.00 | 0.00 | 0.00 | 65 | 1008.2 |
| 20260505214554 | 20 | 216 | 12.9 | 22.5 | 0.00 | 0.00 | 0.00 | 65 | 1008.2 |
| 20260505214050 | 20 | 206 | 9.7 | 12.9 | 0.00 | 0.00 | 0.00 | 65 | 1008.3 |
| 20260505213548 | 20 | 188 | 14.5 | 17.7 | 0.00 | 0.00 | 0.00 | 66 | 1008.3 |
| 20260505213044 | 20 | 229 | 14.5 | 22.5 | 0.00 | 0.00 | 0.00 | 65 | 1008.3 |
| 20260505212540 | 20 | 244 | 8.0 | 9.7 | 0.00 | 0.00 | 0.00 | 66 | 1007.9 |
| 20260505212038 | 20 | 249 | 4.8 | 8.0 | 0.00 | 0.00 | 0.00 | 66 | 1008.1 |
| 20260505211535 | 20 | 223 | 14.5 | 22.5 | 0.00 | 0.00 | 0.00 | 66 | 1008.0 |
| 20260505211031 | 19 | 239 | 9.7 | 12.9 | 0.00 | 0.00 | 0.00 | 67 | 1008.1 |
| 20260505210528 | 20 | 202 | 14.5 | 16.1 | 0.00 | 0.00 | 0.00 | 67 | 1008.1 |
| 20260505210026 | 20 | 199 | 12.9 | 20.9 | 0.00 | 0.00 | 0.00 | 68 | 1008.0 |
| 20260505205523 | 20 | 205 | 6.4 | 9.7 | 0.00 | 0.00 | 0.00 | 67 | 1008.2 |
| 20260505205020 | 20 | 183 | 6.4 | 8.0 | 0.00 | 0.00 | 0.00 | 67 | 1008.3 |
| 20260505204518 | 20 | 128 | 4.8 | 4.8 | 0.00 | 0.00 | 0.00 | 67 | 1008.2 |
| 20260505204015 | 20 | 237 | 3.2 | 4.8 | 0.00 | 0.00 | 0.00 | 67 | 1008.2 |
| 20260505203511 | 20 | 118 | 8.0 | 11.3 | 0.00 | 0.00 | 0.00 | 66 | 1008.4 |
| 20260505203008 | 20 | 117 | 4.8 | 4.8 | 0.00 | 0.00 | 0.00 | 66 | 1007.9 |
| 20260505202505 | 20 | 185 | 8.0 | 11.3 | 0.00 | 0.00 | 0.00 | 67 | 1008.2 |
| 20260505202001 | 20 | 85 | 9.7 | 16.1 | 0.00 | 0.00 | 0.00 | 67 | 1008.3 |
| 20260505201458 | 20 | 263 | 12.9 | 16.1 | 0.00 | 0.00 | 0.00 | 67 | 1008.2 |
| 20260505200955 | 20 | 209 | 11.3 | 16.1 | 0.00 | 0.00 | 0.00 | 66 | 1008.3 |
| 20260505200453 | 21 | 210 | 11.3 | 14.5 | 0.00 | 0.00 | 0.00 | 65 | 1008.3 |
| 20260505195948 | 21 | 86 | 3.2 | 4.8 | 0.00 | 0.00 | 0.00 | 65 | 1008.5 |
| 20260505195446 | 20 | 223 | 11.3 | 16.1 | 0.00 | 0.00 | 0.00 | 66 | 1008.4 |
| 20260505194943 | 21 | 266 | 6.4 | 8.0 | 0.00 | 0.00 | 0.00 | 64 | 1008.4 |
| 20260505194441 | 21 | 231 | 9.7 | 20.9 | 0.00 | 0.00 | 0.00 | 64 | 1008.6 |
| 20260505193940 | 21 | 187 | 11.3 | 14.5 | 0.00 | 0.00 | 0.00 | 64 | 1008.8 |
| 20260505193438 | 21 | 301 | 3.2 | 4.8 | 0.00 | 0.00 | 0.00 | 65 | 1008.7 |
| 20260505192935 | 20 | 155 | 11.3 | 14.5 | 0.00 | 0.00 | 0.00 | 66 | 1008.7 |
| 20260505192434 | 21 | 77 | 3.2 | 3.2 | 0.00 | 0.00 | 0.00 | 66 | 1008.8 |
| 20260505191931 | 20 | 180 | 8.0 | 11.3 | 0.00 | 0.00 | 0.00 | 67 | 1008.9 |
| 20260505191430 | 21 | 189 | 14.5 | 14.5 | 0.00 | 0.00 | 0.00 | 65 | 1009.0 |
| 20260505190926 | 20 | 221 | 8.0 | 12.9 | 0.00 | 0.00 | 0.00 | 68 | 1009.1 |
| 20260505190421 | 20 | 252 | 11.3 | 16.1 | 0.00 | 0.00 | 0.00 | 68 | 1009.4 |
| 20260505185917 | 20 | 164 | 16.1 | 20.9 | 0.00 | 0.00 | 0.00 | 67 | 1009.5 |
| 20260505185415 | 20 | 238 | 9.7 | 12.9 | 0.00 | 0.00 | 0.00 | 66 | 1009.7 |
| 20260505184910 | 20 | 112 | 3.2 | 8.0 | 0.00 | 0.00 | 0.00 | 68 | 1009.3 |
| 20260505184407 | 20 | 122 | 8.0 | 12.9 | 0.00 | 0.00 | 0.00 | 67 | 1009.7 |
| 20260505183904 | 20 | 129 | 11.3 | 14.5 | 0.00 | 0.00 | 0.00 | 67 | 1009.4 |
| 20260505183401 | 20 | 276 | 9.7 | 14.5 | 0.00 | 0.00 | 0.00 | 67 | 1009.4 |
| 20260505182858 | 20 | 199 | 14.5 | 20.9 | 0.00 | 0.00 | 0.00 | 67 | 1009.7 |
| 20260505182355 | 21 | 253 | 8.0 | 11.3 | 0.00 | 0.00 | 0.00 | 66 | 1009.7 |
| 20260505181851 | 20 | 163 | 11.3 | 12.9 | 0.00 | 0.00 | 0.00 | 68 | 1009.8 |
| 20260505181349 | 20 | 164 | 9.7 | 14.5 | 0.00 | 0.00 | 0.00 | 68 | 1009.7 |
| 20260505180845 | 20 | 167 | 11.3 | 14.5 | 0.00 | 0.00 | 0.00 | 67 | 1009.7 |
| 20260505180341 | 21 | 143 | 11.3 | 12.9 | 0.00 | 0.00 | 0.00 | 67 | 1009.8 |
| 20260505175838 | 21 | 153 | 8.0 | 16.1 | 0.00 | 0.00 | 0.00 | 68 | 1009.7 |
| 20260505175334 | 21 | 111 | 4.8 | 4.8 | 0.00 | 0.00 | 0.00 | 68 | 1009.8 |
| 20260505174831 | 20 | 159 | 9.7 | 12.9 | 0.00 | 0.00 | 0.00 | 68 | 1009.9 |
| 20260505174329 | 21 | 251 | 14.5 | 20.9 | 0.00 | 0.00 | 0.00 | 67 | 1009.9 |
| 20260505173824 | 20 | 194 | 11.3 | 14.5 | 0.00 | 0.00 | 0.00 | 70 | 1010.0 |
| 20260505173321 | 20 | 160 | 9.7 | 14.5 | 0.00 | 0.00 | 0.00 | 71 | 1009.8 |
| 20260505172819 | 20 | 298 | 4.8 | 9.7 | 0.00 | 0.00 | 0.00 | 69 | 1009.7 |
| 20260505172316 | 20 | 164 | 16.1 | 20.9 | 0.00 | 0.00 | 0.00 | 71 | 1009.9 |
| 20260505171815 | 20 | 185 | 11.3 | 14.5 | 0.00 | 0.00 | 0.00 | 70 | 1010.0 |
| 20260505171313 | 20 | 190 | 12.9 | 17.7 | 0.00 | 0.00 | 0.00 | 69 | 1009.8 |
| 20260505170809 | 20 | 230 | 4.8 | 8.0 | 0.00 | 0.00 | 0.00 | 69 | 1010.2 |
| 20260505170306 | 21 | 161 | 11.3 | 14.5 | 0.00 | 0.00 | 0.00 | 68 | 1010.0 |
| 20260505165801 | 20 | 261 | 6.4 | 12.9 | 0.00 | 0.00 | 0.00 | 67 | 1010.2 |
| 20260505165257 | 21 | 171 | 9.7 | 12.9 | 0.00 | 0.00 | 0.00 | 66 | 1010.2 |
| 20260505164753 | 21 | 187 | 11.3 | 12.9 | 0.00 | 0.00 | 0.00 | 66 | 1010.0 |
| 20260505164250 | 21 | 114 | 8.0 | 9.7 | 0.00 | 0.00 | 0.00 | 66 | 1010.0 |
| 20260505163749 | 21 | 150 | 8.0 | 11.3 | 0.00 | 0.00 | 0.00 | 65 | 1010.1 |
| 20260505163247 | 21 | 241 | 4.8 | 4.8 | 0.00 | 0.00 | 0.00 | 65 | 1010.1 |
| 20260505162744 | 21 | 205 | 9.7 | 11.3 | 0.00 | 0.00 | 0.00 | 65 | 1010.2 |
| 20260505162241 | 21 | 151 | 4.8 | 4.8 | 0.00 | 0.00 | 0.00 | 65 | 1010.4 |
| 20260505161738 | 21 | 130 | 9.7 | 12.9 | 0.00 | 0.00 | 0.00 | 68 | 1010.6 |
| 20260505161235 | 21 | 184 | 12.9 | 14.5 | 0.00 | 0.00 | 0.00 | 67 | 1010.5 |
| 20260505160732 | 20 | 167 | 8.0 | 12.9 | 0.00 | 0.00 | 0.00 | 68 | 1010.7 |
| 20260505160230 | 21 | 137 | 4.8 | 8.0 | 0.00 | 0.00 | 0.00 | 66 | 1010.6 |
| 20260505153209 | 20 | 163 | 6.4 | 9.7 | 0.00 | 0.00 | 0.00 | 68 | 1010.7 |
| 20260505152706 | 20 | 121 | 8.0 | 9.7 | 0.00 | 0.00 | 0.00 | 68 | 1010.9 |
| 20260505152202 | 20 | 110 | 8.0 | 11.3 | 0.00 | 0.00 | 0.00 | 69 | 1010.9 |
| 20260505151657 | 20 | 105 | 3.2 | 3.2 | 0.00 | 0.00 | 0.00 | 68 | 1010.9 |
| 20260505151156 | 20 | 321 | 4.8 | 8.0 | 0.00 | 0.00 | 0.00 | 69 | 1010.9 |
| 20260505150651 | 20 | 193 | 8.0 | 9.7 | 0.00 | 0.00 | 0.00 | 68 | 1011.1 |
| 20260505150149 | 20 | 237 | 6.4 | 8.0 | 0.00 | 0.00 | 0.00 | 69 | 1011.1 |
| 20260505140617 | 20 | 199 | 8.0 | 11.3 | 0.00 | 0.00 | 0.00 | 67 | 1010.9 |
| 20260505140114 | 20 | 257 | 8.0 | 11.3 | 0.00 | 0.00 | 0.00 | 65 | 1010.8 |
| 20260505125030 | 18 | 207 | 6.4 | 9.7 | 0.00 | 0.00 | 0.00 | 74 | 1010.6 |
| 20260505124527 | 17 | 306 | 6.4 | 8.0 | 0.00 | 0.00 | 0.00 | 76 | 1010.8 |
| 20260505124023 | 17 | 192 | 8.0 | 9.7 | 0.00 | 0.00 | 0.00 | 76 | 1010.7 |
| 20260505123520 | 17 | 249 | 3.2 | 3.2 | 0.00 | 0.00 | 0.00 | 77 | 1010.4 |
| 20260505123016 | 17 | 296 | 4.8 | 4.8 | 0.00 | 0.00 | 0.00 | 77 | 1010.7 |
| 20260505122513 | 16 | 246 | 1.6 | 3.2 | 0.00 | 0.00 | 0.00 | 79 | 1010.6 |
| 20260505122010 | 16 | 238 | 1.6 | 3.2 | 0.00 | 0.00 | 0.00 | 80 | 1010.6 |
| 20260505121506 | 16 | 229 | 3.2 | 4.8 | 0.00 | 0.00 | 0.00 | 80 | 1010.6 |
| 20260505121003 | 16 | 333 | 1.6 | 1.6 | 0.00 | 0.00 | 0.00 | 82 | 1010.7 |
| 20260505120459 | 16 | 308 | 4.8 | 4.8 | 0.00 | 0.00 | 0.00 | 83 | 1010.7 |
| 20260505115958 | 15 | 307 | 3.2 | 3.2 | 0.00 | 0.00 | 0.00 | 83 | 1010.9 |
| 20260505115455 | 15 | 269 | 1.6 | 3.2 | 0.00 | 0.00 | 0.00 | 86 | 1010.9 |
| 20260505114953 | 15 | 321 | 0.0 | 0.0 | 0.00 | 0.00 | 0.00 | 87 | 1010.9 |
| 20260505114449 | 14 | 275 | 3.2 | 4.8 | 0.00 | 0.00 | 0.00 | 89 | 1010.7 |
| 20260505113946 | 13 | 96 | 1.6 | 3.2 | 0.00 | 0.00 | 0.00 | 89 | 1010.7 |
| 20260505113442 | 13 | 10 | 1.6 | 3.2 | 0.00 | 0.00 | 0.00 | 91 | 1010.9 |
| 20260505112937 | 13 | 321 | 1.6 | 1.6 | 0.00 | 0.00 | 0.00 | 91 | 1010.9 |
| 20260505112435 | 13 | 356 | 1.6 | 1.6 | 0.00 | 0.00 | 0.00 | 93 | 1011.0 |
| 20260505111932 | 12 | 343 | 1.6 | 1.6 | 0.00 | 0.00 | 0.00 | 93 | 1010.9 |
| 20260505111426 | 12 | 346 | 0.0 | 0.0 | 0.00 | 0.00 | 0.00 | 94 | 1010.9 |
| 20260505110923 | 12 | 289 | 0.0 | 0.0 | 0.00 | 0.00 | 0.00 | 95 | 1011.1 |
| 20260505110420 | 12 | 353 | 0.0 | 1.6 | 0.00 | 0.00 | 0.00 | 96 | 1011.1 |
| 20260505101850 | 11 | 356 | 1.6 | 1.6 | 0.00 | 0.00 | 0.00 | 97 | 1010.4 |
| 20260505101345 | 11 | 18 | 0.0 | 1.6 | 0.00 | 0.00 | 0.00 | 97 | 1010.1 |
| 20260505100841 | 11 | 16 | 0.0 | 0.0 | 0.00 | 0.00 | 0.00 | 97 | 1010.2 |
| 20260505100338 | 11 | 2 | 0.0 | 0.0 | 0.00 | 0.00 | 0.00 | 97 | 1009.9 |
| 20260505095834 | 11 | 54 | 1.6 | 3.2 | 0.00 | 0.00 | 0.00 | 97 | 1010.0 |
| 20260505095332 | 11 | 10 | 0.0 | 0.0 | 0.00 | 0.00 | 0.00 | 97 | 1009.9 |
| 20260505094827 | 11 | 13 | 0.0 | 0.0 | 0.00 | 0.00 | 0.00 | 97 | 1009.9 |
| 20260505094325 | 11 | 12 | 0.0 | 1.6 | 0.00 | 0.00 | 0.00 | 97 | 1010.1 |
| 20260505093820 | 11 | 24 | 0.0 | 0.0 | 0.00 | 0.00 | 0.00 | 97 | 1009.8 |
| 20260505093318 | 11 | 3 | 0.0 | 0.0 | 0.00 | 0.00 | 0.00 | 97 | 1010.0 |
| 20260505092814 | 11 | 3 | 0.0 | 0.0 | 0.00 | 0.00 | 0.00 | 97 | 1009.9 |
| 20260505092313 | 11 | 6 | 0.0 | 0.0 | 0.00 | 0.00 | 0.00 | 97 | 1010.0 |
| 20260505091810 | 11 | 7 | 0.0 | 0.0 | 0.00 | 0.00 | 0.00 | 97 | 1009.9 |
| 20260505091308 | 11 | 7 | 1.6 | 1.6 | 0.00 | 0.00 | 0.00 | 97 | 1010.0 |
| 20260505090806 | 11 | 4 | 0.0 | 0.0 | 0.00 | 0.00 | 0.00 | 97 | 1010.2 |
| 20260505090304 | 11 | 359 | 0.0 | 0.0 | 0.00 | 0.00 | 0.00 | 97 | 1010.0 |
| 20260505085801 | 11 | 351 | 1.6 | 1.6 | 0.00 | 0.00 | 0.00 | 97 | 1009.8 |
| 20260505085259 | 11 | 1 | 0.0 | 0.0 | 0.00 | 0.00 | 0.00 | 96 | 1009.9 |
| 20260505084755 | 11 | 6 | 0.0 | 0.0 | 0.00 | 0.00 | 0.00 | 96 | 1009.8 |
| 20260505084255 | 11 | 5 | 0.0 | 0.0 | 0.00 | 0.00 | 0.00 | 96 | 1009.8 |
| 20260505083751 | 11 | 16 | 0.0 | 0.0 | 0.00 | 0.00 | 0.00 | 96 | 1009.9 |
| 20260505083248 | 11 | 23 | 0.0 | 0.0 | 0.00 | 0.00 | 0.00 | 96 | 1009.8 |
| 20260505082744 | 11 | 42 | 1.6 | 1.6 | 0.00 | 0.00 | 0.00 | 96 | 1009.7 |
| 20260505082242 | 11 | 63 | 0.0 | 1.6 | 0.00 | 0.00 | 0.00 | 96 | 1009.8 |
| 20260505081737 | 11 | 122 | 1.6 | 3.2 | 0.00 | 0.00 | 0.00 | 96 | 1010.0 |
| 20260505081235 | 11 | 36 | 1.6 | 1.6 | 0.00 | 0.00 | 0.00 | 96 | 1010.1 |
| 20260505080732 | 11 | 53 | 3.2 | 3.2 | 0.00 | 0.00 | 0.00 | 96 | 1010.0 |
| 20260505080227 | 11 | 49 | 1.6 | 3.2 | 0.00 | 0.00 | 0.00 | 95 | 1010.0 |
| 20260505075723 | 11 | 19 | 1.6 | 1.6 | 0.00 | 0.00 | 0.00 | 95 | 1009.9 |
| 20260505075221 | 11 | 82 | 0.0 | 0.0 | 0.00 | 0.00 | 0.00 | 95 | 1009.9 |
| 20260505074718 | 11 | 48 | 1.6 | 1.6 | 0.00 | 0.00 | 0.00 | 95 | 1009.8 |
| 20260505074215 | 11 | 32 | 0.0 | 1.6 | 0.00 | 0.00 | 0.00 | 95 | 1009.8 |
| 20260505073712 | 11 | 103 | 3.2 | 3.2 | 0.00 | 0.00 | 0.00 | 95 | 1009.9 |
| 20260505073210 | 11 | 32 | 1.6 | 1.6 | 0.00 | 0.00 | 0.00 | 95 | 1010.1 |
| 20260505072706 | 11 | 83 | 3.2 | 3.2 | 0.00 | 0.00 | 0.00 | 95 | 1009.9 |
| 20260505072202 | 11 | 73 | 4.8 | 4.8 | 0.00 | 0.00 | 0.00 | 95 | 1009.8 |
| 20260505071658 | 11 | 48 | 0.0 | 0.0 | 0.00 | 0.00 | 0.00 | 95 | 1010.0 |
| 20260505071156 | 11 | 78 | 0.0 | 1.6 | 0.00 | 0.00 | 0.00 | 95 | 1010.0 |
| 20260505070653 | 11 | 175 | 4.8 | 4.8 | 0.00 | 0.00 | 0.00 | 95 | 1009.9 |
| 20260505070149 | 11 | 130 | 4.8 | 8.0 | 0.00 | 0.00 | 0.00 | 94 | 1009.9 |
| 20260505065645 | 11 | 161 | 4.8 | 4.8 | 0.00 | 0.00 | 0.00 | 94 | 1010.0 |
| 20260505065142 | 11 | 134 | 4.8 | 4.8 | 0.00 | 0.00 | 0.00 | 94 | 1009.9 |
| 20260505064639 | 11 | 318 | 3.2 | 4.8 | 0.00 | 0.00 | 0.00 | 94 | 1010.0 |
| 20260505064137 | 11 | 335 | 0.0 | 1.6 | 0.00 | 0.00 | 0.00 | 94 | 1009.9 |
| 20260505063634 | 11 | 301 | 3.2 | 4.8 | 0.00 | 0.00 | 0.00 | 94 | 1010.0 |
| 20260505063130 | 11 | 84 | 1.6 | 1.6 | 0.00 | 0.00 | 0.00 | 94 | 1010.2 |
| 20260505062626 | 11 | 171 | 4.8 | 4.8 | 0.00 | 0.00 | 0.00 | 94 | 1010.0 |
| 20260505062124 | 11 | 155 | 3.2 | 8.0 | 0.00 | 0.00 | 0.00 | 94 | 1010.1 |
| 20260505061621 | 11 | 179 | 1.6 | 3.2 | 0.00 | 0.00 | 0.00 | 93 | 1010.1 |
| 20260505061119 | 11 | 86 | 0.0 | 1.6 | 0.00 | 0.00 | 0.00 | 93 | 1010.2 |
| 20260505060616 | 12 | 139 | 6.4 | 8.0 | 0.00 | 0.00 | 0.00 | 93 | 1010.1 |
| 20260505060113 | 12 | 151 | 3.2 | 3.2 | 0.00 | 0.00 | 0.00 | 93 | 1010.2 |
| 20260505055608 | 12 | 112 | 4.8 | 4.8 | 0.00 | 0.00 | 0.00 | 93 | 1010.4 |
| 20260505055105 | 12 | 85 | 1.6 | 1.6 | 0.00 | 0.00 | 0.00 | 93 | 1010.3 |
| 20260505054602 | 12 | 141 | 8.0 | 9.7 | 0.00 | 0.00 | 0.00 | 93 | 1010.4 |
| 20260505054101 | 12 | 158 | 3.2 | 3.2 | 0.00 | 0.00 | 0.00 | 92 | 1010.4 |
| 20260505053557 | 12 | 121 | 4.8 | 8.0 | 0.00 | 0.00 | 0.00 | 92 | 1010.5 |
| 20260505053054 | 12 | 57 | 1.6 | 3.2 | 0.00 | 0.00 | 0.00 | 92 | 1010.6 |
| 20260505052551 | 12 | 66 | 3.2 | 3.2 | 0.00 | 0.00 | 0.00 | 92 | 1010.6 |
| 20260505052049 | 12 | 59 | 1.6 | 1.6 | 0.00 | 0.00 | 0.00 | 91 | 1010.4 |
| 20260505051545 | 12 | 330 | 3.2 | 4.8 | 0.00 | 0.00 | 0.00 | 91 | 1010.5 |
| 20260505051043 | 12 | 53 | 0.0 | 0.0 | 0.00 | 0.00 | 0.00 | 90 | 1010.5 |
| 20260505050541 | 12 | 159 | 4.8 | 4.8 | 0.00 | 0.00 | 0.00 | 90 | 1010.4 |
| 20260505041509 | 12 | 88 | 0.0 | 1.6 | 0.00 | 0.00 | 0.00 | 85 | 1010.7 |
| 20260505041006 | 12 | 136 | 4.8 | 4.8 | 0.00 | 0.00 | 0.00 | 85 | 1010.9 |
| 20260505040503 | 13 | 233 | 1.6 | 3.2 | 0.00 | 0.00 | 0.00 | 84 | 1010.7 |
| 20260505040000 | 13 | 128 | 1.6 | 1.6 | 0.00 | 0.00 | 0.00 | 83 | 1010.6 |
| 20260505035456 | 13 | 136 | 1.6 | 3.2 | 0.00 | 0.00 | 0.00 | 82 | 1010.6 |
| 20260505034953 | 13 | 132 | 4.8 | 8.0 | 0.00 | 0.00 | 0.00 | 81 | 1010.7 |
| 20260505034450 | 13 | 25 | 3.2 | 4.8 | 0.00 | 0.00 | 0.00 | 79 | 1010.7 |
| 20260505033947 | 13 | 331 | 1.6 | 1.6 | 0.00 | 0.00 | 0.00 | 78 | 1010.5 |
| 20260505033444 | 13 | 19 | 3.2 | 4.8 | 0.00 | 0.00 | 0.00 | 77 | 1010.7 |
| 20260505032942 | 14 | 315 | 1.6 | 1.6 | 0.00 | 0.00 | 0.00 | 76 | 1010.7 |
| 20260505032439 | 14 | 325 | 3.2 | 3.2 | 0.00 | 0.00 | 0.00 | 76 | 1010.8 |
| 20260505031935 | 14 | 224 | 3.2 | 3.2 | 0.00 | 0.00 | 0.00 | 76 | 1010.8 |
| 20260505031432 | 13 | 219 | 8.0 | 11.3 | 0.00 | 0.00 | 0.00 | 76 | 1010.9 |
| 20260505030929 | 13 | 294 | 3.2 | 4.8 | 0.00 | 0.00 | 0.00 | 77 | 1010.8 |
| 20260505030425 | 13 | 225 | 4.8 | 4.8 | 0.00 | 0.00 | 0.00 | 77 | 1010.7 |
| 20260505025920 | 13 | 323 | 1.6 | 3.2 | 0.00 | 0.00 | 0.00 | 78 | 1010.8 |
| 20260505025418 | 13 | 276 | 4.8 | 8.0 | 0.00 | 0.00 | 0.00 | 79 | 1010.9 |
| 20260505024917 | 13 | 330 | 1.6 | 1.6 | 0.00 | 0.00 | 0.00 | 80 | 1010.9 |
| 20260505024414 | 13 | 277 | 3.2 | 3.2 | 0.00 | 0.00 | 0.00 | 80 | 1011.0 |
| 20260505023911 | 13 | 334 | 0.0 | 0.0 | 0.00 | 0.00 | 0.00 | 79 | 1010.9 |
| 20260505023408 | 13 | 337 | 0.0 | 1.6 | 0.00 | 0.00 | 0.00 | 79 | 1010.7 |
| 20260505022905 | 13 | 326 | 1.6 | 1.6 | 0.00 | 0.00 | 0.00 | 79 | 1011.0 |
| 20260505022403 | 13 | 290 | 3.2 | 3.2 | 0.00 | 0.00 | 0.00 | 80 | 1010.9 |
| 20260505021859 | 13 | 286 | 4.8 | 8.0 | 0.00 | 0.00 | 0.00 | 80 | 1011.0 |
| 20260505021356 | 13 | 330 | 1.6 | 1.6 | 0.00 | 0.00 | 0.00 | 80 | 1010.9 |
| 20260505020852 | 13 | 319 | 1.6 | 3.2 | 0.00 | 0.00 | 0.00 | 80 | 1011.0 |
| 20260505020347 | 13 | 269 | 0.0 | 3.2 | 0.00 | 0.00 | 0.00 | 79 | 1011.1 |
| 20260505015844 | 13 | 212 | 6.4 | 9.7 | 0.00 | 0.00 | 0.00 | 78 | 1010.9 |
| 20260505015341 | 13 | 329 | 1.6 | 1.6 | 0.00 | 0.00 | 0.00 | 77 | 1011.0 |
| 20260505014839 | 13 | 244 | 3.2 | 4.8 | 0.00 | 0.00 | 0.00 | 76 | 1010.8 |
| 20260505014336 | 13 | 293 | 4.8 | 8.0 | 0.00 | 0.00 | 0.00 | 75 | 1010.8 |
| 20260505013832 | 14 | 315 | 1.6 | 1.6 | 0.00 | 0.00 | 0.00 | 73 | 1010.9 |
| 20260505013329 | 14 | 279 | 4.8 | 4.8 | 0.00 | 0.00 | 0.00 | 72 | 1010.7 |
| 20260505012828 | 15 | 232 | 6.4 | 9.7 | 0.00 | 0.00 | 0.00 | 70 | 1010.8 |
| 20260505012325 | 15 | 276 | 4.8 | 4.8 | 0.00 | 0.00 | 0.00 | 69 | 1010.6 |
| 20260505011821 | 14 | 317 | 3.2 | 4.8 | 0.00 | 0.00 | 0.00 | 70 | 1010.6 |
| 20260505011318 | 15 | 318 | 1.6 | 1.6 | 0.00 | 0.00 | 0.00 | 70 | 1010.5 |
| 20260505010814 | 14 | 253 | 4.8 | 4.8 | 0.00 | 0.00 | 0.00 | 71 | 1010.5 |
| 20260505010310 | 14 | 316 | 1.6 | 1.6 | 0.00 | 0.00 | 0.00 | 71 | 1010.3 |
| 20260505005806 | 14 | 220 | 4.8 | 8.0 | 0.00 | 0.00 | 0.00 | 72 | 1010.3 |
| 20260505005304 | 14 | 206 | 8.0 | 11.3 | 0.00 | 0.00 | 0.00 | 72 | 1010.2 |
| 20260505004801 | 14 | 136 | 4.8 | 4.8 | 0.00 | 0.00 | 0.00 | 73 | 1010.3 |
| 20260505004256 | 14 | 249 | 4.8 | 9.7 | 0.00 | 0.00 | 0.00 | 73 | 1010.1 |